User: anonymous   Login
Location: Mentone
(34.5413°N, 85.5351°W)
Time: 15:38:18
(UTC-05:00)
Language:

Cosmos 2150 Rocket - Orbit

View from above orbital plane
View from above orbital plane
View from above satellite
View from above satellite

Ground track
Ground track

The orbit data is extracted from the following two-line orbital elements,

1 21419U 91041B   16126.94799644 +.00000123 +00000-0 +53287-4 0  9995
2 21419 074.0396 324.3616 0041215 349.6360 112.9302 14.33807826301832
Epoch (UTC): 05 May 2016 22:45:06
Eccentricity: 0.0041215
inclination: 74.0396°
perigee height: 749 km
apogee height: 808 km
right ascension of ascending node: 324.3616°
argument of perigee: 349.6360°
revolutions per day: 14.33807826
mean anomaly at epoch: 112.9302°
orbit number at epoch: 30183

The dashed part of the orbit path shows where the satellite is in the earth's shadow,  

DLR